FREGAT R/B, 37345

Orbit data source: Space-Track

FREGAT R/B, 37345 is space debris in GEO originally from a launch on Thu, 20 Jan 2011 UTC launched from the Tyuratam Missile And Space Complex (TTMTR). Debris objects in space refer to the collection of defunct objects orbiting the Earth. Examples of debris include non-operational satellites, rocket bodies, and fragments generated from explosions, collisions, or faulty payload assembly.

Not visible in the next 10 days
Identifier
37345, 2011-001B
Orbit
GEO
Last TLE update
21 hours ago
Origin
Manufacturer
Lavochkin
Mission
Spacecraft
Bus & Motor
FREGAT, Unknown motor
Mass
1,000 kg wet, 1,000 kg dry
Launch date (UTC)
2011-01-20 (14 years ago)
Launch vehicle
Unknown
Launch site
Tyuratam Missile And Space Complex (TTMTR)
Object type
Payload
Rocket body
Debris
Shape & HBR
Cyl, 3.3 m
Radar Cross Section
8.683 m², Large (>1 m²)

Expand to show TLE details & history

TLE from 21 hours ago
0 FREGAT R/B
1 37345U 11001B   25128.89320019 -.00000240  00000-0  00000-0 0  9992
2 37345   9.4693  45.9052 0154227  60.0197 137.2565  1.02801709 56248
Epoch: 2025-05-08T21:26Z
Definitive object data (Epoch: 2025-05-08T21:26:12.496Z)
Latitude
-3.00132°
Longitude
55.62038°
Altitude
35,566.537 km
Speed
3.065 km/s
True Right ascension
16h 16m 31s
True Declination
-2° 59' 54"
Sunlit
Object was in daylight at TLE epoch
Visualization TLE readout
Latitude
2.51524°
Longitude
22.01872°
Altitude
35,243.081 km
Speed
3.089 km/s
Apparent Right ascension
14h 06m 25s
Apparent Declination
-2° 46' 15"
Sunlit
Object is in daylight
Visualization observer readout
Local Sidereal Time
02:43:14
Azimuth
15.014° NNE
Elevation
-51.929°
Doppler factor
1
Orbital elements
Apogee altitude
35,732.592 km
Perigee altitude
34,453.398 km
Semi-major axis
41,471.132 km
Eccentricity
0.0154227
Inclination
9.4693°
RAAN
45.9052°
Arg. of periapsis
60.0197°
True anomaly
138.43917°
Mean anomaly
137.2565°
Eccentric anomaly
137.8495°
Mean motion
0.25699 °/min
BSTAR
Unknown
Orbital period
1400.81 mins
Loading historical data...
37345 neighbors
Loading maneuver chart data...
Loading SW <> Apogee altitude chart data...
Loading historical data...
Loading historical data...
Loading historical data...
Loading historical data...
Loading historical data...
Loading historical data...
Loading historical data...

FREGAT R/B Visibility forecast

Observer location: undefined°, undefined°

FREGAT R/B is not visible in the next 10 days
Span
Click to sort rows by Start time (UTC) header in descending order
Start Az.
Max El. time (UTC)
Max El. Az.
Max El.
End time (UTC)
End Az.
|